* Astronomy

Members Login
Post Info TOPIC: Comet C/2011 S1 (GIBBS)


L

Posts: 128726
Date:
RE: Comet C/2011 S1 (GIBBS)
Permalink  
 


Comet P/2011 S1 (Gibbs) makes its closest approach to the Earth (6.334 AU) on the 29th December 2016.

2011 S1_291216



__________________


L

Posts: 128726
Date:
Permalink  
 

Comet P/2011 S1 (Gibbs) is at Opposition (5.910 AU) on the 20th November 2014



__________________


L

Posts: 128726
Date:
Permalink  
 

Comet P/2011 S1 (Gibbs) makes its closest approach to the Earth (5.909 AU) on the 19th November 2014

Ephemeris

Date    TT    R. A. (2000) Decl.     Delta      r    Elong.  Phase   Mag
2014 11 18    03 42 43.0 +18 40 59   5.9096  6.8974   177.4     0.4  20.2
2014 11 19    03 42 18.7 +18 39 28   5.9094  6.8975   178.4     0.2  20.2
2014 11 20    03 41 54.4 +18 37 57   5.9095  6.8976   179.0     0.1  20.2
2014 11 21    03 41 30.1 +18 36 25   5.9100  6.8977   178.6     0.2  20.2
2014 11 22    03 41 05.8 +18 34 54   5.9107  6.8979   177.7     0.3  20.2
2014 11 23    03 40 41.5 +18 33 23   5.9118  6.8980   176.7     0.5  20.2
2014 11 24    03 40 17.3 +18 31 52   5.9131  6.8981   175.6     0.6  20.2
2014 11 25    03 39 53.2 +18 30 21   5.9148  6.8982   174.5     0.8  20.2
2014 11 26    03 39 29.1 +18 28 51   5.9168  6.8983   173.4     0.9  20.2
2014 11 27    03 39 05.2 +18 27 21   5.9192  6.8984   172.3     1.1  20.2
2014 11 28    03 38 41.4 +18 25 51   5.9218  6.8985   171.2     1.3  20.2
2014 11 29    03 38 17.7 +18 24 22   5.9247  6.8986   170.1     1.4  20.3
2014 11 30    03 37 54.2 +18 22 53   5.9280  6.8988   169.0     1.6  20.3


__________________


L

Posts: 128726
Date:
Comet P/2011 S1 (Gibbs)
Permalink  
 


Comet P/2011 S1 (Gibbs) is at Perihelion (6.897 AU) on the 20th August 2014 

Ephemeris

Date    TT    R. A. (2000) Decl.     Delta      r     Elong.  Phase   Mag
2014 08 19    03 53 19.1 +19 38 05   6.9003  6.8932    85.4     8.4  20.6
2014 08 20    03 53 36.2 +19 38 41   6.8843  6.8932    86.3     8.4  20.6
2014 08 21    03 53 52.8 +19 39 16   6.8684  6.8932    87.2     8.4  20.6
2014 08 22    03 54 08.9 +19 39 49   6.8524  6.8932    88.1     8.4  20.6
2014 08 23    03 54 24.4 +19 40 20   6.8365  6.8932    89.0     8.4  20.6
2014 08 24    03 54 39.4 +19 40 49   6.8205  6.8932    89.9     8.4  20.6
2014 08 25    03 54 53.8 +19 41 17   6.8045  6.8932    90.8     8.4  20.5
2014 08 26    03 55 07.7 +19 41 43   6.7886  6.8932    91.7     8.4  20.5
2014 08 27    03 55 21.1 +19 42 07   6.7726  6.8932    92.6     8.4  20.5
2014 08 28    03 55 33.9 +19 42 29   6.7567  6.8932    93.5     8.4  20.5
2014 08 29    03 55 46.2 +19 42 50   6.7408  6.8932    94.5     8.4  20.5
2014 08 30    03 55 57.9 +19 43 09   6.7249  6.8932    95.4     8.4  20.5
2014 08 31    03 56 09.1 +19 43 26   6.7090  6.8932    96.3     8.4  20.5


__________________


L

Posts: 128726
Date:
Permalink  
 

Comet P/2011 S1 (Gibbs) is at Opposition (5.957 AU) on the 28 October 2013



__________________


L

Posts: 128726
Date:
Permalink  
 

Comet P/2011 S1 (Gibbs) makes its closest approach to the Earth (5.958 AU) on the 28 October 2013



__________________


L

Posts: 128726
Date:
RE: Comet C/2011 S1 (GIBBS)
Permalink  
 


Comet C/2011 S1 (Gibbs) makes its closest approach to the Earth (6.158 AU) on the 7th October, 2012.



__________________


L

Posts: 128726
Date:
Comet P/2011 S1 (GIBBS)
Permalink  
 


Orbital elements:
    P/2011 S1 (Gibbs)
Epoch 2014 Sept. 20.0 TT = JDT 2456920.5
T 2014 Oct. 3.04568 TT                                  MPC
q   6.8257836            (2000.0)            P               Q
n   0.03871285     Peri.  196.30806     +0.57147285     -0.82009541
a   8.6543135      Node   218.85242     +0.75803700     +0.54125817
e   0.2112854      Incl.    2.68302     +0.31432259     +0.18569630
P  25.46
From 59 observations 2011 Sept. 6-2012 Sept. 21

MPEC 2012 - S43

Comet P/2011 S1 (GIBBS) was discovered on the 6th June, 2011, by A. R. Gibbs (Mount Lemmon Survey).
The preliminary orbital elements of the comet indicate a perihelion passage on the 3rd October, 2014, at a distance of 6.8 AU from the Sun, and a period of 25.46 years.



__________________


L

Posts: 128726
Date:
Comet C/2011 S1 (GIBBS)
Permalink  
 


Orbital elements:
    C/2011 S1 (Gibbs)
T 2013 Jan. 16.53738 TT                                 MPC
q   4.9878456            (2000.0)            P               Q
                   Peri.  174.64609     +0.71235679     -0.70118411
                   Node   229.92249     +0.64245035     +0.66860713
e   1.0            Incl.    2.23274     +0.28249840     +0.24759919
From 22 observations 2011 Sept. 18-21.

MPEC 2011 - S28

Comet C/2011 S1 (GIBBS) was discovered on the 18th September, 2011, by A. Gibbs (Mt. Lemmon Survey).
The preliminary orbital elements of the comet indicate a perihelion passage on the 16th January, 2013, at a distance of 4.99 AU from the Sun.



__________________
Page 1 of 1  sorted by
 
Quick Reply

Please log in to post quick replies.



Create your own FREE Forum
Report Abuse
Powered by ActiveBoard